[[{"header":{"parameterUnit":"m.s-1","parameterCategory":1,"la1":30.2991,"la2":30.254,"lo1":-89.0895,"lo2":-89.0444,"dy":0.0017,"dx":0.0017,"nx":28,"ny":28,"refTime":"2023-08-29T21:00:00:Z","depth":0,"parameterNumber":2,"parameterNumberName":"U-component_of_WINDS"},"data":[0,0,0,0,0,0,0,0,0,0,0,0,0,0,0,0,0,0,0,0,0,0,0,0,0,0,0,0,0,0,0,0,0,0,0,0,0,0,0,0,0,0,0,0,0,0,0,0,0,0,0,0,0,0,0,0,0,0,-3.1146,-3.1146,0,-3.1146,-3.1146,-3.1146,-3.0992,-3.0988,-3.0984,-3.098,-3.0984,-3.0987,-3.0991,0,0,0,0,0,0,0,0,0,0,0,0,0,-3.1016,-3.1019,-3.1146,-3.1146,-3.1146,-3.1146,-3.1146,-3.1146,-3.0993,-3.0988,-3.0983,-3.0979,-3.0982,-3.0987,-3.0991,0,0,0,0,0,0,0,0,0,0,0,0,0,-3.105,-3.102,-3.1146,-3.107,-3.1063,-3.1146,-3.1146,-3.1146,-3.0994,-3.0988,-3.0982,-3.0976,-3.0981,-3.0986,-3.0992,-3.1149,0,0,-3.101,-3.1012,0,0,0,0,0,0,0,0,-3.1049,-3.1055,-3.1081,-3.1075,-3.1068,-3.1063,-3.1101,-3.1147,-3.0996,-3.102,-3.098,-3.0973,-3.1015,-3.1018,-3.1031,-3.115,-3.115,-3.101,-3.1014,-3.1016,-3.1018,0,0,0,0,0,0,0,-3.1046,-3.1054,-3.1146,-3.1082,-3.1074,-3.1036,-3.1034,-3.1109,-3.1052,-3.1018,-3.1007,-3.1008,-3.101,-3.1026,-3.103,-3.115,-3.101,-3.1015,-3.1019,-3.1021,-3.1397,-3.1403,0,0,0,0,0,0,-3.1054,-3.1053,-3.1146,-3.1146,-3.1043,-3.1043,-3.1041,-3.1071,-3.1051,-3.1042,-3.1014,-3.1001,-3.1019,-3.1023,-3.103,-3.1213,-3.1016,-3.1022,-3.1025,-3.1391,-3.1399,-3.1406,0,0,0,0,0,0,-3.1052,-3.1064,-3.1146,-3.1097,-3.1104,-3.1052,-3.1086,-3.1074,-3.1089,-3.1047,-3.1037,-3.104,-3.1014,-3.1021,-3.112,-3.1211,-3.1024,-3.103,-3.1383,-3.1393,-3.1402,-3.1581,0,0,0,0,0,0,-3.1049,-3.1064,-3.1123,-3.1099,-3.1108,-3.1237,-3.1092,-3.1078,-3.1099,-3.1083,-3.1069,-3.1061,-3.101,-3.1113,-3.1126,-3.1215,-3.1034,-3.1375,-3.1387,-3.1399,-3.1567,-3.1596,-3.162,0,0,0,0,0,-3.1045,-3.1174,-3.1127,-3.1139,-3.118,-3.1243,-3.1248,-3.1185,-3.1107,-3.1166,-3.1139,-3.1062,-3.1198,-3.1124,-3.1138,-3.1231,-3.1369,-3.1384,-3.1398,-3.1555,-3.159,-3.162,0,0,0,0,0,0,-3.1211,-3.117,-3.1117,-3.1242,-3.1247,-3.1217,-3.129,-3.1224,-3.1253,-3.1237,-3.1158,-3.1157,-3.1269,-3.1259,-3.1177,-3.1381,-3.127,-3.1288,-3.1384,-3.1417,-3.1443,-3.1444,-3.1039,0,0,0,0,0,-3.1262,-3.1316,-3.1277,-3.1391,-3.1396,-3.1343,-3.1368,-3.1319,-3.1321,-3.1323,-3.1303,-3.131,-3.1353,-3.1384,-3.1422,-3.1564,-3.1559,-3.1634,-3.1661,-3.1683,-3.17,-3.1775,-3.1808,-3.1454,-3.1454,-3.1453,0,0,-3.1369,-3.1353,-3.1392,-3.1424,-3.1422,-3.1481,-3.1346,-3.1413,-3.1456,-3.1334,-3.1426,-3.1412,-3.1413,-3.1534,-3.1587,-3.153,-3.1796,-3.1702,-3.172,-3.1725,-3.1793,-3.1827,-3.1857,-3.1464,-3.1462,-3.146,0,0,-3.1594,-3.1586,-3.1681,-3.1681,-3.1679,-3.1643,-3.1666,-3.1645,-3.163,-3.1721,-3.1631,-3.168,-3.1758,-3.1763,-3.1776,-3.2,-3.1931,-3.2015,-3.2156,-3.2229,-3.2257,-3.2281,-3.2363,-3.2393,-3.2032,-3.2032,-3.2032,0,-3.1727,-3.181,-3.1738,-3.1811,-3.1828,-3.1719,-3.1814,-3.1818,-3.183,-3.1845,-3.178,-3.1875,-3.1868,-3.1989,-3.2044,-3.2057,-3.2082,-3.2017,-3.2258,-3.2282,-3.2304,-3.2381,-3.2411,-3.2043,-3.2041,-3.204,-3.2039,0,-3.1974,-3.2033,-3.211,-3.2123,-3.2148,-3.2233,-3.2174,-3.2209,-3.2157,-3.2128,-3.2222,-3.2209,-3.2243,-3.2268,-3.2219,-3.2382,-3.2347,-3.2272,-3.2158,-3.2349,-3.242,-3.2449,-3.2057,-3.2054,-3.2051,-3.2048,0,0,-3.2307,-3.2276,-3.2306,-3.231,-3.23,-3.2344,-3.2423,-3.2455,-3.2487,-3.2498,-3.2563,-3.263,-3.256,-3.2575,-3.2525,-3.2589,-3.2769,-3.2506,-3.2504,-3.2556,-3.2949,-3.3007,-3.3043,-3.2722,-3.2727,-3.2731,-3.295,0,-3.2525,-3.2658,-3.2594,-3.2735,-3.2789,-3.2685,-3.2753,-3.2755,-3.2729,-3.2771,-3.2742,-3.2792,-3.2695,-3.2703,-3.2762,-3.2735,-3.2847,-3.2718,-3.2783,-3.2786,-3.2788,-3.3079,-3.3141,-3.3348,-3.2977,-3.2981,-3.2985,0,-3.2798,-3.2819,-3.2965,-3.2944,-3.2964,-3.3027,-3.3051,-3.3092,-3.3091,-3.3068,-3.3084,-3.3019,-3.3095,-3.2981,-3.3086,-3.3,-3.3022,-3.3013,-3.3019,-3.3024,-3.2899,-3.3094,-3.3412,-3.3444,-3.3027,-3.3024,-3.3021,0,-3.3027,-3.3092,-3.3188,-3.3194,-3.3172,-3.3218,-3.3211,-3.3204,-3.3227,-3.3248,-3.3262,-3.3292,-3.331,-3.3334,-3.3279,-3.3201,-3.3393,-3.3274,-3.3377,-3.3378,-3.3423,-3.3422,-3.3752,-3.3435,-3.3435,-3.3434,-3.3434,0,-3.3279,-3.3373,-3.329,-3.335,-3.3451,-3.3377,-3.3481,-3.3462,-3.3457,-3.3511,-3.3422,-3.3475,-3.3398,-3.3444,-3.3401,-3.3495,-3.3503,-3.3487,-3.3475,-3.3496,-3.3498,-3.3511,-3.3496,-3.3443,-3.3441,-3.3439,-3.3438,0,-3.3554,-3.3502,-3.3599,-3.3569,-3.3563,-3.364,-3.3614,-3.3668,-3.3635,-3.3705,-3.3717,-3.3666,-3.3714,-3.3661,-3.3707,-3.3678,-3.3805,-3.3771,-3.3806,-3.3796,-3.3903,-3.3894,-3.4254,-3.4298,-3.3953,-3.3956,-3.3959,0,-3.3719,-3.3788,-3.3765,-3.3794,-3.3792,-3.384,-3.3862,-3.3792,-3.3819,-3.3823,-3.3877,-3.3918,-3.3947,-3.403,-3.3998,-3.4032,-3.3999,-3.4122,-3.4004,-3.4023,-3.4002,-3.4,-3.4007,-3.4148,-3.4152,-3.4155,-3.4158,0,-3.4018,-3.3988,-3.4023,-3.405,-3.4079,-3.4097,-3.4108,-3.4137,-3.4064,-3.4099,-3.4147,-3.417,-3.4215,-3.4258,-3.4282,-3.4275,-3.4206,-3.4195,-3.4221,-3.4244,-3.4262,-3.4255,-3.3873,-3.4188,-3.4185,-3.4182,-3.4181,-3.418,-3.4243,-3.43,-3.4292,-3.4334,-3.4335,-3.4347,-3.4396,-3.4368,-3.4407,-3.4437,-3.4393,-3.4454,-3.445,-3.4475,-3.4477,-3.4523,-3.4471,-3.4508,-3.4518,-3.4528,-3.4545,-3.4253,-3.4527,-3.4526,-3.4525,-3.4525,-3.4524,0,-3.4539,-3.4528,-3.4567,-3.4585,-3.4618,-3.4547,-3.4555,-3.4588,-3.4642,-3.4644,-3.4674,-3.473,-3.477,-3.474,-3.4774,-3.4817,-3.4786,-3.4828,-3.4825,-3.4825,-3.4589,-3.4564,-3.4853,-3.4853,-3.4853,-3.4853,-3.4853,-3.4853,-3.4696,-3.4789,-3.4758,-3.485,-3.4838,-3.4896,-3.4907,-3.4918,-3.4919,-3.4985,-3.5017,-3.4996,-3.4986,-3.5018,-3.5052,-3.5042,-3.5059,-3.5114,-3.5093,-3.4874,-3.4842,-3.4811,-3.4787,-3.5118,-3.5118,-3.5325,-3.5327,-3.5328]},{"header":{"parameterUnit":"m.s-1","parameterCategory":1,"la1":30.2991,"la2":30.254,"lo1":-89.0895,"lo2":-89.0444,"dy":0.0017,"dx":0.0017,"nx":28,"ny":28,"refTime":"2023-08-29T21:00:00:Z","depth":0,"parameterNumber":3,"parameterNumberName":"V-component_of_WINDS"},"data":[0,0,0,0,0,0,0,0,0,0,0,0,0,0,0,0,0,0,0,0,0,0,0,0,0,0,0,0,0,0,0,0,0,0,0,0,0,0,0,0,0,0,0,0,0,0,0,0,0,0,0,0,0,0,0,0,0,0,-3.9115,-3.9115,0,-3.9137,-3.9137,-3.9138,-3.909,-3.9088,-3.9087,-3.9085,-3.9107,-3.9109,-3.9111,0,0,0,0,0,0,0,0,0,0,0,0,0,-3.9027,-3.9029,-3.9115,-3.9115,-3.9115,-3.9137,-3.9137,-3.9138,-3.909,-3.9088,-3.9086,-3.9085,-3.9106,-3.9108,-3.9111,0,0,0,0,0,0,0,0,0,0,0,0,0,-3.9059,-3.903,-3.9115,-3.9094,-3.9093,-3.9137,-3.9137,-3.9138,-3.909,-3.9088,-3.9086,-3.9084,-3.9105,-3.9108,-3.9111,-3.9176,0,0,-3.912,-3.9122,0,0,0,0,0,0,0,0,-3.9057,-3.9062,-3.9097,-3.9096,-3.9094,-3.9108,-3.9114,-3.9151,-3.9091,-3.9091,-3.9085,-3.9083,-3.9109,-3.9111,-3.9121,-3.9177,-3.9178,-3.9121,-3.9122,-3.9124,-3.9124,0,0,0,0,0,0,0,-3.9055,-3.9061,-3.9123,-3.9097,-3.9096,-3.9083,-3.9085,-3.9121,-3.9113,-3.9091,-3.9088,-3.9091,-3.9108,-3.9118,-3.9121,-3.9178,-3.912,-3.9123,-3.9125,-3.9126,-3.9286,-3.9289,0,0,0,0,0,0,-3.9056,-3.906,-3.9123,-3.9124,-3.907,-3.9086,-3.9088,-3.9106,-3.9112,-3.9111,-3.9093,-3.9089,-3.9114,-3.9117,-3.9121,-3.9196,-3.9124,-3.9126,-3.9128,-3.9284,-3.9287,-3.929,0,0,0,0,0,0,-3.9054,-3.9062,-3.9122,-3.9091,-3.9098,-3.909,-3.911,-3.9108,-3.9118,-3.9114,-3.9112,-3.9105,-3.9112,-3.9117,-3.9162,-3.9196,-3.9128,-3.9131,-3.9281,-3.9285,-3.9288,-3.9347,0,0,0,0,0,0,-3.9052,-3.9062,-3.9087,-3.9092,-3.9099,-3.9163,-3.9113,-3.911,-3.9123,-3.9118,-3.9125,-3.9124,-3.9111,-3.9158,-3.9165,-3.9199,-3.9133,-3.9278,-3.9283,-3.9287,-3.9342,-3.9352,-3.9361,0,0,0,0,0,-3.9049,-3.9103,-3.9089,-3.9097,-3.9131,-3.9166,-3.917,-3.9155,-3.9126,-3.9151,-3.9148,-3.9123,-3.9192,-3.9163,-3.9171,-3.9206,-3.9276,-3.9281,-3.9287,-3.9338,-3.935,-3.9361,0,0,0,0,0,0,-3.9102,-3.9103,-3.9087,-3.9145,-3.9155,-3.9157,-3.9188,-3.9169,-3.9187,-3.9181,-3.9161,-3.9163,-3.9211,-3.9213,-3.9182,-3.9268,-3.9229,-3.9236,-3.9265,-3.9277,-3.9286,-3.9284,-3.9135,0,0,0,0,0,-3.9121,-3.9149,-3.9148,-3.9199,-3.9205,-3.9196,-3.921,-3.9198,-3.9208,-3.9212,-3.9212,-3.9222,-3.9245,-3.9261,-3.9283,-3.9342,-3.9342,-3.937,-3.938,-3.9387,-3.9393,-3.9423,-3.9435,-3.9308,-3.9308,-3.9307,0,0,-3.9159,-3.9163,-3.9182,-3.921,-3.9216,-3.9245,-3.92,-3.9233,-3.9253,-3.9217,-3.9259,-3.9259,-3.9269,-3.9321,-3.9344,-3.9324,-3.9429,-3.9394,-3.9401,-3.9402,-3.943,-3.9442,-3.9452,-3.9311,-3.9311,-3.931,0,0,-3.9243,-3.925,-3.9292,-3.9299,-3.931,-3.9303,-3.9313,-3.9318,-3.9317,-3.9359,-3.9331,-3.9355,-3.9397,-3.9404,-3.9413,-3.9499,-3.9476,-3.9507,-3.9556,-3.9584,-3.9594,-3.9603,-3.9631,-3.9642,-3.9513,-3.9513,-3.9513,0,-3.9289,-3.9332,-3.9316,-3.935,-3.9362,-3.933,-3.9371,-3.9379,-3.9396,-3.9404,-3.9382,-3.9432,-3.9437,-3.9489,-3.951,-3.9519,-3.9528,-3.9505,-3.9594,-3.9603,-3.9611,-3.9638,-3.9649,-3.9517,-3.9516,-3.9516,-3.9515,0,-3.9387,-3.9417,-3.9449,-3.9466,-3.9482,-3.952,-3.9508,-3.9525,-3.9511,-3.9506,-3.9549,-3.9553,-3.9574,-3.9585,-3.9572,-3.9635,-3.9622,-3.9598,-3.9558,-3.9627,-3.9651,-3.9662,-3.9522,-3.952,-3.9519,-3.9518,0,0,-3.9505,-3.9512,-3.9524,-3.953,-3.9539,-3.9561,-3.9597,-3.9617,-3.9632,-3.9645,-3.9672,-3.9708,-3.9684,-3.9695,-3.9682,-3.9708,-3.9772,-3.968,-3.9679,-3.9695,-3.984,-3.9857,-3.9869,-3.9758,-3.976,-3.9761,-3.9838,0,-3.9587,-3.9648,-3.9633,-3.9693,-3.9719,-3.9689,-3.9719,-3.9727,-3.9724,-3.9745,-3.974,-3.9765,-3.9734,-3.9739,-3.9763,-3.9759,-3.9801,-3.9754,-3.9782,-3.9783,-3.9779,-3.9882,-3.9901,-3.9973,-3.9848,-3.985,-3.9851,0,-3.969,-3.9706,-3.9769,-3.9771,-3.9781,-3.9809,-3.9826,-3.9847,-3.9855,-3.985,-3.9861,-3.9843,-3.9876,-3.9837,-3.9882,-3.9851,-3.9861,-3.9861,-3.9863,-3.9864,-3.982,-3.9884,-3.9996,-4.0006,-3.9866,-3.9865,-3.9864,0,-3.9767,-3.9805,-3.9846,-3.9853,-3.9858,-3.9877,-3.988,-3.9886,-3.9898,-3.9913,-3.992,-3.9939,-3.9948,-3.9963,-3.9949,-3.9922,-3.9995,-3.9955,-3.9991,-3.9991,-4.0006,-4.0005,-4.012,-4.0017,-4.0017,-4.0016,-4.0016,0,-3.9859,-3.9897,-3.988,-3.9906,-3.9948,-3.993,-3.9972,-3.9971,-3.9976,-4.0,-3.9975,-3.9998,-3.998,-4.0001,-3.999,-4.0028,-4.0033,-4.0029,-4.0025,-4.003,-4.003,-4.0035,-4.0029,-4.0019,-4.0019,-4.0018,-4.0018,0,-3.9951,-3.9942,-3.9985,-3.9985,-3.9986,-4.0017,-4.0017,-4.004,-4.0034,-4.0064,-4.007,-4.0061,-4.0084,-4.0073,-4.0097,-4.009,-4.0137,-4.0128,-4.0135,-4.0131,-4.0167,-4.0163,-4.0287,-4.0301,-4.0191,-4.0192,-4.0193,0,-4.001,-4.0038,-4.0042,-4.0056,-4.006,-4.0084,-4.0096,-4.008,-4.0093,-4.0104,-4.0125,-4.0146,-4.0161,-4.0199,-4.0194,-4.0212,-4.0202,-4.0244,-4.0204,-4.0207,-4.02,-4.0197,-4.0199,-4.0252,-4.0253,-4.0254,-4.0255,0,-4.0113,-4.0106,-4.0125,-4.0142,-4.0157,-4.017,-4.0181,-4.0194,-4.0177,-4.0194,-4.0217,-4.0229,-4.0253,-4.0273,-4.0289,-4.029,-4.0269,-4.0268,-4.0276,-4.028,-4.0282,-4.0279,-4.0154,-4.0265,-4.0264,-4.0263,-4.0262,-4.0262,-4.0188,-4.0212,-4.0217,-4.0238,-4.0244,-4.0254,-4.0275,-4.0272,-4.0291,-4.0309,-4.0298,-4.0325,-4.033,-4.0348,-4.0353,-4.0373,-4.0356,-4.0369,-4.0372,-4.0375,-4.0379,-4.0281,-4.0376,-4.0376,-4.0375,-4.0375,-4.0375,0,-4.0288,-4.029,-4.031,-4.0325,-4.0341,-4.0321,-4.0331,-4.0345,-4.0369,-4.0376,-4.0392,-4.0417,-4.0437,-4.0433,-4.045,-4.0467,-4.0457,-4.0472,-4.0469,-4.0469,-4.0394,-4.0384,-4.0479,-4.0479,-4.0479,-4.0479,-4.0479,-4.0479,-4.0342,-4.0379,-4.0373,-4.0413,-4.0414,-4.044,-4.0447,-4.0456,-4.0461,-4.049,-4.0506,-4.0504,-4.0506,-4.0523,-4.0539,-4.0538,-4.0544,-4.0562,-4.0556,-4.0486,-4.0475,-4.0465,-4.0455,-4.0564,-4.0564,-4.063,-4.063,-4.0631]}]]